Location: Auttagershofen
(48.1940°N, 10.0237°E)
Time: 23:38:02
(UTC+00:00)

BREEZE-M DEB (TANK) - Visible Passes

Search period start: 18 April 2026 00:00
Search period end: 28 April 2026 00:00
Orbit: 350 x 16119 km, 49.4° (Epoch: 18 April)

Date Brightness Start Highest point End Pass type
(mag) Time Alt. Az. Time Alt. Az. Time Alt. Az.
18 Apr 5.5 22:55:34 10° W 22:56:14 14° W 22:56:14 14° W visible
19 Apr5.923:54:52SSE23:54:52SSE23:21:26Wvisible
20 Apr 2.0 18:45:04 10° W 18:47:27 70° N 18:51:42 10° E visible
21 Apr6.200:20:56SSE00:20:56SSE23:46:37Wvisible
21 Apr 2.1 19:10:53 10° WNW 19:13:24 81° NNE 19:18:37 10° E visible
22 Apr 2.3 19:36:38 10° WNW 19:39:19 84° SSW 19:43:54 16° ESE visible
23 Apr 2.7 20:02:22 10° WNW 20:05:15 67° SSW 20:09:03 22° ESE visible
24 Apr 3.3 20:28:05 10° W 20:31:15 53° SSW 20:34:12 29° SE visible
25 Apr 3.9 20:53:49 10° W 20:57:18 42° SSW 20:59:20 33° SSE visible
26 Apr 4.4 21:19:38 10° W 21:23:28 34° SSW 21:24:27 33° S visible
27 Apr 5.0 21:45:32 10° W 21:49:34 28° SSW 21:49:34 28° SSW visible
